Location: Ayer Observatory
(42.2600°N, 71.0700°W)
Time: 01:46:03
(UTC-04:00)

FO-29 - Pass Details

Date: 24 August 2019
Orbit: 800 x 1321 km, 98.6° (Epoch: 20 September)

Event Time Altitude Azimuth Distance (km) Brightness Sun altitude
Exits shadow 02:08:43 15° 98° (E) 2,098 11.4 -33.4°
Maximum altitude 02:11:15 21° 63° (ENE) 1,768 11.3 -33.2°
Drops below altitude 10° 02:15:02 10° 16° (NNE) 2,387 12.4 -32.9°
Sets 02:17:51 0° 1° (N) 3,321 13.2 -32.6°
